DW4892 Weather Reports


Display with metric or nautical units.
time (UTC)temp
F
wind
direction
speed
MPH
gust
MPH
rain 1hr
in
rain 24hr
in
rain mn
in
humidity
%
barometer
mb
20260903091515 61 180 0.0 2.0 0.00 0.00 0.00 61 1001.0
20260903090034 60 161 0.0 2.0 0.00 0.00 0.00 63 1001.1
20260903084525 59 175 0.0 2.0 0.00 0.00 0.00 64 1001.1
20260903083022 60 185 0.0 2.0 0.00 0.00 0.00 64 1000.8
20260903081556 60 197 0.0 1.0 0.00 0.00 0.00 64 1000.8
20260903080029 61 196 0.0 0.0 0.00 0.00 0.00 62 1001.0
20260903074522 61 195 0.0 1.0 0.00 0.00 0.00 61 1001.2
20260903073029 61 190 0.0 1.0 0.00 0.00 0.00 62 1001.1
20260903071523 62 166 0.0 2.0 0.00 0.00 0.00 62 1001.2
20260903070028 61 173 0.0 2.0 0.00 0.00 0.00 62 1001.3
20260903064521 62 194 0.0 2.0 0.00 0.00 0.00 62 1001.3
20260903063021 62 235 0.0 0.0 0.00 0.00 0.00 63 1001.2
20260903061557 62 236 0.0 2.0 0.00 0.00 0.00 62 1001.3
20260903060028 62 221 0.0 2.0 0.00 0.00 0.00 62 1001.2
20260903054523 63 215 0.0 3.0 0.00 0.00 0.00 61 1001.4
20260903053020 63 240 0.0 0.0 0.00 0.00 0.00 60 1001.2
20260903051610 63 239 0.0 1.0 0.00 0.00 0.00 59 1001.5
20260903050023 64 238 0.0 1.0 0.00 0.00 0.00 58 1001.5
20260903044521 64 292 1.0 2.0 0.00 0.00 0.00 57 1001.5
20260903043146 65 61 0.0 2.0 0.00 0.00 0.00 56 1001.3
20260903041524 66 63 0.0 2.0 0.00 0.00 0.00 54 1001.5
20260903040022 66 73 0.0 2.0 0.00 0.00 0.00 53 1001.5
20260903034532 66 313 0.0 2.0 0.00 0.00 0.00 52 1001.3
20260903033016 67 294 0.0 1.0 0.00 0.00 0.00 50 1001.1
20260903031528 68 325 0.0 2.0 0.00 0.00 0.00 48 1000.8
20260903030021 70 88 1.0 5.0 0.00 0.00 0.00 45 1000.8
20260903024525 71 34 1.0 6.0 0.00 0.00 0.00 44 1000.7
20260903023055 72 293 1.0 7.0 0.00 0.00 0.00 44 1000.6
20260903021525 74 130 2.0 7.0 0.00 0.00 0.00 38 999.6
20260903020025 75 7 1.0 6.0 0.00 0.00 0.00 37 999.3
20260903014521 75 238 1.0 3.0 0.00 0.00 0.00 40 999.6
20260903013010 75 313 1.0 6.0 0.00 0.00 0.00 39 998.7
20260903011529 77 283 2.0 6.0 0.00 0.00 0.00 34 998.6
20260903010023 78 50 3.0 7.0 0.00 0.00 0.00 32 998.5
20260903004522 78 83 0.0 4.0 0.00 0.00 0.00 33 998.5
20260903003017 79 45 1.0 4.0 0.00 0.00 0.00 33 998.5
20260903001530 80 86 2.0 8.0 0.00 0.00 0.00 30 998.5
20260903000027 80 75 3.0 9.0 0.00 0.00 0.00 30 998.3
20260902234524 82 77 5.0 12.0 0.00 0.00 0.00 30 998.2
20260902233018 82 52 4.0 11.0 0.00 0.00 0.00 30 998.4
20260902231534 83 50 3.0 10.0 0.00 0.00 0.00 29 998.7
20260902230025 83 61 5.0 14.0 0.00 0.00 0.00 29 998.7
20260902224527 83 73 4.0 12.0 0.00 0.00 0.00 29 998.8
20260902223025 83 99 7.0 12.0 0.00 0.00 0.00 28 998.9
20260902221531 83 77 3.0 9.0 0.00 0.00 0.00 29 999.1
20260902220028 83 41 6.0 11.0 0.00 0.00 0.00 29 999.4
20260902214522 84 44 4.0 12.0 0.00 0.00 0.00 28 999.7
20260902213102 82 79 4.0 9.0 0.00 0.00 0.00 29 999.9
20260902211529 85 57 5.0 12.0 0.00 0.00 0.00 28 1000.1
20260902210024 86 108 5.0 12.0 0.00 0.00 0.00 28 1000.2
20260902204521 85 75 2.0 10.0 0.00 0.00 0.00 26 1000.6
20260902203017 88 114 2.0 9.0 0.00 0.00 0.00 28 1000.7
20260902201528 84 94 3.0 9.0 0.00 0.00 0.00 29 1000.8
20260902200048 85 59 5.0 11.0 0.00 0.00 0.00 30 1001.0
20260902194522 88 40 3.0 9.0 0.00 0.00 0.00 28 1001.2
20260902193015 87 35 4.0 9.0 0.00 0.00 0.00 29 1001.4
20260902191534 88 46 4.0 9.0 0.00 0.00 0.00 28 1001.5
20260902190045 85 40 4.0 8.0 0.00 0.00 0.00 32 1001.8
20260902184520 83 30 3.0 8.0 0.00 0.00 0.00 30 1002.0
20260902183017 84 80 2.0 7.0 0.00 0.00 0.00 31 1002.3
20260902181533 87 49 4.0 8.0 0.00 0.00 0.00 30 1002.6
20260902180029 87 65 2.0 8.0 0.00 0.00 0.00 29 1002.9
20260902174523 86 48 3.0 8.0 0.00 0.00 0.00 27 1003.2
20260902173019 86 48 1.0 5.0 0.00 0.00 0.00 27 1003.4
20260902171558 84 73 2.0 5.0 0.00 0.00 0.00 25 1003.8
20260902170029 84 347 3.0 5.0 0.00 0.00 0.00 27 1004.1
20260902164524 82 61 1.0 6.0 0.00 0.00 0.00 31 1004.1
20260902163021 80 75 1.0 4.0 0.00 0.00 0.00 29 1004.2
20260902161543 79 146 0.0 5.0 0.00 0.00 0.00 31 1004.5
20260902160033 79 108 1.0 5.0 0.00 0.00 0.00 31 1004.7
20260902154528 78 155 1.0 4.0 0.00 0.00 0.00 29 1004.7
20260902153057 75 51 0.0 3.0 0.00 0.00 0.00 30 1004.7
20260902151532 75 200 1.0 6.0 0.00 0.00 0.00 33 1004.9
20260902150026 72 307 0.0 2.0 0.00 0.00 0.00 40 1005.0
20260902144520 71 163 0.0 2.0 0.00 0.00 0.00 44 1005.0
20260902143018 69 297 0.0 2.0 0.00 0.00 0.00 45 1004.8
20260902141537 69 138 1.0 4.0 0.00 0.00 0.00 42 1004.9
20260902140029 67 294 1.0 6.0 0.00 0.00 0.00 43 1004.9
20260902134525 65 290 1.0 4.0 0.00 0.00 0.00 47 1004.8
20260902133020 64 109 1.0 8.0 0.00 0.00 0.00 50 1004.8
20260902131522 62 287 1.0 4.0 0.00 0.00 0.00 56 1004.7
20260902130032 60 18 0.0 3.0 0.00 0.00 0.00 60 1004.5
20260902124522 56 288 0.0 1.0 0.00 0.00 0.00 67 1004.4
20260902123018 56 288 0.0 0.0 0.00 0.00 0.00 69 1004.3
20260902121532 57 288 0.0 1.0 0.00 0.00 0.00 67 1004.1
20260902120025 58 308 0.0 3.0 0.00 0.00 0.00 65 1004.0
20260902114525 60 190 0.0 2.0 0.00 0.00 0.00 63 1003.7
20260902113013 59 199 0.0 2.0 0.00 0.00 0.00 64 1003.7
20260902111539 59 227 0.0 1.0 0.00 0.00 0.00 64 1003.7
20260902110025 62 195 0.0 2.0 0.00 0.00 0.00 58 1003.7
20260902104534 62 294 0.0 2.0 0.00 0.00 0.00 57 1003.7
20260902103017 62 283 0.0 3.0 0.00 0.00 0.00 56 1003.7
20260902101539 62 284 0.0 2.0 0.00 0.00 0.00 58 1003.7
20260902100031 62 282 0.0 2.0 0.00 0.00 0.00 57 1003.8
20260902094524 63 201 0.0 4.0 0.00 0.00 0.00 56 1003.7
20260902093056 63 6 1.0 4.0 0.00 0.00 0.00 55 1003.6